DateTimeUTC,F1_A11,F1_S11,BsB_S11,BsG_S11,BsR_S11,BbsB_S11,BbsG_S11,BbsR_S11,BaB_A11,BaG_A11,BaR_A11,Tu_S11,T_S11,Uu_S11,U_S11,P_S11,T1_A11
2021-04-16T15:00:00Z,00000200,21000000,,,,,,,0000.04,0000.07,0000.11,18.4,25.2,,00.0,0648.2,31.1
2021-04-16T15:01:00Z,00000200,21000000,,,,,,,0000.33,-000.13,-000.02,18.4,25.2,,00.0,0648.2,31.0
2021-04-16T15:02:00Z,00000200,21000000,,,,,,,-000.10,-000.04,-000.33,18.3,25.2,,00.0,0648.2,31.0
2021-04-16T15:03:00Z,00000200,61000000,,,,,,,0000.45,0000.59,0000.79,18.3,25.2,,00.0,0648.2,31.0
2021-04-16T15:04:00Z,00000200,41000000,0001.07,0000.71,0000.51,0000.15,0000.19,-000.12,0000.16,-000.01,0000.19,18.1,24.9,,00.0,0649.1,31.0
2021-04-16T15:05:00Z,00000200,01000000,0001.26,0000.83,0000.39,0000.17,0000.01,-000.04,0000.59,0000.36,0000.44,18.1,24.9,,00.0,0649.1,31.0
2021-04-16T15:06:00Z,00000200,01000000,0000.60,0000.52,0000.22,0000.17,0000.10,0000.00,0000.24,0000.83,0000.42,18.0,24.8,,00.0,0649.1,31.0
2021-04-16T15:07:00Z,00000200,01000000,0001.00,0001.02,0000.61,-000.47,0000.13,-000.07,0000.79,0000.40,0000.41,18.1,24.8,,00.0,0649.0,31.0
2021-04-16T15:08:00Z,00000200,01000000,0000.78,0000.38,0000.60,0000.53,0000.41,-000.10,0000.13,0000.61,0000.28,18.2,24.9,,00.0,0649.0,31.0
2021-04-16T15:09:00Z,00000200,01000000,0001.28,0000.60,0000.38,0000.13,0000.25,0000.31,0000.46,0000.15,0000.49,18.3,24.9,,00.0,0649.0,31.1
2021-04-16T15:10:00Z,00000200,01000000,0001.36,0000.89,0000.34,0000.12,0000.07,-000.17,0000.65,0000.66,0000.43,18.3,24.9,,00.0,0649.2,31.1
2021-04-16T15:11:00Z,00000200,01000000,0000.71,0000.56,0000.45,0000.11,0000.10,0000.01,0000.47,0000.51,0000.27,18.4,25.0,,00.0,0649.4,31.1
2021-04-16T15:12:00Z,00000200,01000000,0000.74,0000.65,0000.55,0000.38,0000.10,0000.18,0000.04,-000.33,-000.18,18.4,25.0,,00.0,0648.9,31.1
2021-04-16T15:13:00Z,00000200,01000000,0001.43,0000.80,0000.43,0000.03,0000.08,-000.05,0000.51,0000.58,0000.26,18.4,25.0,,00.0,0649.0,31.1
2021-04-16T15:14:00Z,00000200,01000000,0001.48,0000.82,0000.49,0000.13,0000.17,0000.14,0000.88,0000.93,0001.26,18.3,25.0,,00.0,0649.1,31.1
2021-04-16T15:15:00Z,00000200,01000000,0000.94,0000.88,0000.65,0000.09,0000.21,0000.12,-000.53,0000.09,-000.02,18.2,24.9,,00.0,0649.2,31.0
2021-04-16T15:16:00Z,00000200,01000000,0000.50,0000.80,0000.50,0000.04,0000.46,0000.06,0000.36,-000.24,0000.14,18.2,24.9,,00.0,0649.1,31.0
2021-04-16T15:17:00Z,00000200,01000000,0000.98,0000.77,0000.64,0000.26,0000.25,0000.31,0000.50,0000.41,-000.14,18.1,24.8,,00.0,0649.3,31.0
2021-04-16T15:18:00Z,00000200,01000000,0000.58,0000.60,0000.32,0000.69,0000.26,0000.05,0000.80,0000.93,0000.81,18.0,24.8,,00.0,0649.1,31.0
2021-04-16T15:19:00Z,00000200,01000000,0000.62,0000.59,0000.78,-000.26,0000.19,0000.22,0000.33,0000.02,0000.10,18.0,24.8,,00.0,0648.9,31.0
2021-04-16T15:20:00Z,00000200,01000000,0001.66,0000.49,0000.51,0000.21,0000.10,0000.18,0000.16,0000.26,0000.16,17.9,24.7,,00.0,0648.9,31.0
2021-04-16T15:21:00Z,00000200,01000000,0000.99,0000.63,0000.50,-000.11,0000.30,0000.17,0000.94,0000.65,0000.73,17.9,24.7,,00.0,0649.0,31.0
2021-04-16T15:22:00Z,00000200,01000000,0000.91,0000.65,0000.40,0000.17,0000.23,-000.05,0000.58,0000.81,0000.51,18.0,24.7,,00.0,0649.1,31.0
2021-04-16T15:23:00Z,00000200,01000000,0001.28,0000.55,0000.57,-000.53,0000.12,0000.05,0000.34,0000.03,0000.18,18.0,24.8,,00.0,0649.1,31.0
2021-04-16T15:24:00Z,00000200,01000000,0001.03,0000.97,0000.52,-000.03,0000.02,0000.15,0000.08,0000.18,0000.62,18.1,24.8,,00.0,0649.1,31.0
2021-04-16T15:25:00Z,00000200,01000000,0000.53,0000.89,0000.48,0000.51,0000.10,0000.07,0001.07,0001.29,0000.53,18.2,24.8,,00.0,0649.0,31.0
2021-04-16T15:26:00Z,00000200,01000000,0000.61,0000.69,0000.57,-000.25,0000.11,0000.22,0001.11,0001.12,0000.90,18.2,24.8,,00.0,0649.1,31.1
2021-04-16T15:27:00Z,00000200,01000000,0000.93,0000.67,0000.32,-000.38,0000.04,-000.15,0000.47,0000.29,0000.39,18.2,24.8,,00.0,0649.1,31.0
2021-04-16T15:28:00Z,00000200,01000000,0001.58,0000.72,0000.26,-000.05,0000.15,0000.03,-000.01,-000.02,0000.33,18.1,24.8,,00.0,0649.1,31.0
2021-04-16T15:29:00Z,00000200,01000000,0001.26,0000.80,0000.54,0000.16,0000.30,-000.05,0000.91,0000.50,0000.54,18.1,24.8,,00.0,0649.0,31.0
2021-04-16T15:30:00Z,00000200,01000000,0000.62,0001.09,0000.77,-000.34,0000.31,0000.19,0001.02,0001.17,0000.94,18.0,24.7,,00.0,0648.9,31.0
2021-04-16T15:31:00Z,00000200,01000000,0001.41,0000.91,0000.55,0000.22,0000.25,0000.19,-000.03,-000.11,-000.11,17.9,24.7,,00.0,0649.1,31.0
2021-04-16T15:32:00Z,00000200,01000000,0001.27,0000.88,0000.41,-000.19,0000.39,-000.19,0000.49,0000.53,0000.49,17.9,24.7,,00.0,0649.0,30.9
2021-04-16T15:33:00Z,00000200,01000000,0000.94,0000.49,0000.45,-000.03,0000.25,0000.12,0000.97,0001.03,0000.73,17.8,24.6,,00.0,0649.1,30.9
2021-04-16T15:34:00Z,00000200,01000000,0000.67,0000.41,0000.41,-000.24,0000.26,-000.04,0000.22,0000.08,0000.28,17.7,24.6,,00.0,0648.9,30.9
2021-04-16T15:35:00Z,00000200,01000000,0001.45,0000.71,0000.61,-000.48,0000.26,0000.27,0000.24,0000.18,0000.14,17.7,24.5,,00.0,0649.0,30.9
2021-04-16T15:36:00Z,00000200,01000000,0000.97,0000.64,0000.29,-000.17,0000.25,0000.02,0000.39,0000.11,0000.62,17.7,24.5,,00.0,0649.1,30.9
2021-04-16T15:37:00Z,00000200,01000000,0001.21,0000.66,0000.28,0000.15,0000.14,0000.13,0000.71,0000.87,0000.92,17.7,24.5,,00.0,0649.0,30.9
2021-04-16T15:38:00Z,00000200,01000000,0000.77,0000.59,0000.47,0000.20,0000.22,0000.04,0001.34,0001.52,0001.01,17.8,24.5,,00.0,0648.9,31.0
2021-04-16T15:39:00Z,00000200,01000000,0000.74,0000.60,0000.61,-000.27,0000.31,0000.05,0000.69,0000.38,0000.04,17.8,24.5,,00.0,0649.0,31.0
2021-04-16T15:40:00Z,00000200,01000000,0001.17,0000.89,0000.42,-000.07,0000.14,0000.10,0000.70,0001.00,0001.08,17.8,24.5,,00.0,0649.0,31.0
2021-04-16T15:41:00Z,00000200,01000000,0001.25,0000.70,0000.41,0000.42,0000.01,-000.00,0001.03,0000.69,0000.28,17.9,24.6,,00.0,0649.1,31.0
2021-04-16T15:42:00Z,00000200,01000000,0000.62,0000.70,0000.71,-000.21,0000.21,0000.04,0001.63,0001.27,0001.34,17.9,24.5,,00.0,0649.1,31.0
2021-04-16T15:43:00Z,00000200,01000000,0001.29,0000.63,0000.40,-000.55,-000.05,-000.19,0001.02,0001.07,0001.06,17.8,24.5,00.0,00.0,0649.0,30.9
2021-04-16T15:44:00Z,00000200,01000000,0000.94,0000.44,0000.41,0000.56,0000.22,0000.05,-000.22,0000.72,0000.30,17.8,24.5,00.0,00.0,0649.0,30.9
2021-04-16T15:45:00Z,00000200,01000000,0000.99,0000.46,0000.26,-000.58,0000.05,-000.05,0000.21,-000.05,0000.34,17.7,24.5,00.0,00.0,0649.0,30.9
2021-04-16T15:46:00Z,00000200,01000000,0001.11,0000.44,0000.48,-000.05,0000.06,-000.07,0000.40,0000.39,-000.12,17.7,24.5,00.0,00.0,0649.0,30.9
2021-04-16T15:47:00Z,00000200,01000000,0000.65,0000.49,0000.14,0000.15,0000.27,-000.16,0000.96,0000.78,0000.74,17.6,24.4,00.0,00.0,0649.0,30.9
2021-04-16T15:48:00Z,00000200,01000000,0000.86,0000.89,0000.47,0000.08,-000.07,0000.40,0001.29,0001.12,0001.02,17.6,24.4,,00.0,0648.9,30.9
2021-04-16T15:49:00Z,00000200,01000000,0001.08,0000.81,0000.46,0000.00,0000.06,0000.04,-000.15,0000.24,0000.45,17.5,24.4,,00.0,0648.9,30.9
2021-04-16T15:50:00Z,00000200,01000000,0000.37,0000.52,0000.48,0000.37,-000.01,-000.00,0000.33,0000.14,0000.06,17.5,24.3,00.0,00.0,0648.9,30.9
2021-04-16T15:51:00Z,00000200,01000000,0000.85,0000.48,0000.51,-000.37,0000.46,0000.05,0000.86,0000.33,0000.55,17.5,24.3,00.0,00.0,0648.8,30.9
2021-04-16T15:52:00Z,00000200,01000000,0001.15,0000.72,0000.54,0000.18,0000.23,0000.06,0000.31,0000.87,0000.59,17.6,24.3,00.0,00.0,0648.9,30.9
2021-04-16T15:53:00Z,00000200,01000000,0000.95,0000.97,0000.36,0000.27,0000.02,0000.13,0000.81,0000.53,0001.25,17.6,24.3,00.0,00.0,0648.8,30.9
2021-04-16T15:54:00Z,00000200,01000000,0000.84,0000.59,0000.32,0000.13,0000.02,0000.19,0000.98,0001.29,0000.37,17.7,24.4,00.0,00.0,0648.8,31.0
2021-04-16T15:55:00Z,00000200,01000000,0000.87,0000.77,0000.48,-000.00,-000.02,0000.17,0000.95,0000.81,0000.80,17.7,24.4,,00.0,0648.9,31.0
2021-04-16T15:56:00Z,00000200,01000000,0000.37,0000.59,0000.38,-000.42,0000.52,-000.33,0000.14,-000.20,-000.08,17.7,24.4,00.0,00.0,0648.8,31.0
2021-04-16T15:57:00Z,00000200,41000000,,,,,,,-000.38,0000.04,-000.45,17.8,24.4,,00.0,0648.9,31.0
2021-04-16T15:58:00Z,00000200,61000000,,,,,,,0000.01,0000.59,0000.70,17.6,24.5,,00.0,0648.0,31.0
2021-04-16T15:59:00Z,00000200,21000000,,,,,,,0000.56,-000.23,-000.05,17.5,24.6,,00.0,0648.0,31.0
